Weather History for Indianapolis, IN

Change the Weather History Date:

Sunday, October 23, 2011

  Actual Average (KEYE) Record (KEYE)
Temperature  
Mean Temperature 52 °F 52 °F  
Max Temperature 68 °F 62 °F 73 °F (2000)
Min Temperature 35 °F 43 °F 33 °F (2013)
Degree Days  
Heating Degree Days 14 13  
Month to date heating degree days 218  
Since 1 July heating degree days 279  
Cooling Degree Days 0 0  
Month to date cooling degree days 12  
Year to date cooling degree days 1055  
Growing Degree Days 2 (Base 50)    
Moisture  
Dew Point 41 °F    
Average Humidity 75    
Maximum Humidity 93    
Minimum Humidity 46    
Precipitation  
Precipitation 0.00 in 0.10 in 0.89 in (2004)
Month to date precipitation 2.34  
Year to date precipitation 33.24  
Sea Level Pressure  
Sea Level Pressure 30.02 in    
Wind  
Wind Speed 5 mph (SSW)    
Max Wind Speed 12 mph    
Max Gust Speed -    
Visibility 10 miles    
Events      
T = Trace of Precipitation, MM = Missing Value Source: NWS Daily Summary

Daily Weather History Graph

Daily Weather History Graph

Search for Another Location

Airport:

Trip Planner

Search our weather history database for the weather conditions in past years. The results will help you decide how hot, cold, wet, or windy it might be!

Date:

Astronomy

Oct. 23, 2011 Rise Set
Actual Time 8:03 AM EDT 6:54 PM EDT
Civil Twilight 7:36 AM EDT 7:21 PM EDT
Nautical Twilight 7:04 AM EDT 7:53 PM EDT
Astronomical Twilight 6:33 AM EDT 8:24 PM EDT
Moon 4:10 AM EDT (10/23) 4:44 PM EDT (10/23)
Length of Visible Light 11h 45m
Length of Day
10h 50m
Waning Crescent, 14% of the Moon is Illuminated
Oct 23
Waning Crescent
Oct 26
New
Nov 2
First Quarter
Nov 10
Full
Nov 18
Last Quarter

Hourly Weather History & Observations

Time (EDT) Temp. Windchill Dew Point Humidity Pressure Visibility Wind Dir Wind Speed Gust Speed Precip Events Conditions
12:15 AM 39.2 °F 37.0 °F 37.4 °F 93% 30.06 in 10.0 mi SSE 3.5 mph - N/A   Clear
12:55 AM 39.2 °F 37.0 °F 37.4 °F 93% 30.04 in 10.0 mi SSE 3.5 mph - N/A   Clear
1:15 AM 35.6 °F 32.8 °F 33.8 °F 93% 30.03 in 10.0 mi SSE 3.5 mph - N/A   Clear
1:35 AM 35.6 °F 32.8 °F 33.8 °F 93% 30.03 in 10.0 mi SSE 3.5 mph - N/A   Clear
1:55 AM 35.6 °F 32.8 °F 33.8 °F 93% 30.03 in 10.0 mi South 3.5 mph - N/A   Clear
2:15 AM 35.6 °F 31.7 °F 33.8 °F 93% 30.03 in 10.0 mi South 4.6 mph - N/A   Clear
2:35 AM 35.6 °F 31.7 °F 33.8 °F 93% 30.03 in 10.0 mi South 4.6 mph - N/A   Clear
2:55 AM 37.4 °F 33.8 °F 35.6 °F 93% 30.03 in 10.0 mi South 4.6 mph - N/A   Clear
3:15 AM 39.2 °F 35.9 °F 37.4 °F 93% 30.04 in 10.0 mi South 4.6 mph - N/A   Clear
3:35 AM 41.0 °F 38.0 °F 37.4 °F 87% 30.04 in 10.0 mi South 4.6 mph - N/A   Clear
3:55 AM 41.0 °F 37.1 °F 37.4 °F 87% 30.04 in 10.0 mi South 5.8 mph - N/A   Clear
4:15 AM 42.8 °F 39.3 °F 37.4 °F 81% 30.04 in 10.0 mi South 5.8 mph - N/A   Clear
4:35 AM 42.8 °F 39.3 °F 37.4 °F 81% 30.03 in 10.0 mi South 5.8 mph - N/A   Clear
4:55 AM 41.0 °F 39.0 °F 35.6 °F 81% 30.03 in 10.0 mi South 3.5 mph - N/A   Clear
5:15 AM 37.4 °F 33.8 °F 35.6 °F 93% 30.03 in 10.0 mi South 4.6 mph - N/A   Clear
5:35 AM 37.4 °F 34.9 °F 33.8 °F 87% 30.03 in 10.0 mi South 3.5 mph - N/A   Clear
5:55 AM 35.6 °F - 33.8 °F 93% 30.03 in 10.0 mi Calm Calm - N/A   Clear
6:15 AM 35.6 °F 32.8 °F 33.8 °F 93% 30.03 in 10.0 mi SSE 3.5 mph - N/A   Clear
6:35 AM 35.6 °F 32.8 °F 33.8 °F 93% 30.03 in 10.0 mi South 3.5 mph - N/A   Clear
6:55 AM 39.2 °F 37.0 °F 37.4 °F 93% 30.04 in 10.0 mi South 3.5 mph - N/A   Scattered Clouds
7:15 AM 41.0 °F - 37.4 °F 87% 30.03 in 10.0 mi Calm Calm - N/A   Overcast
7:35 AM 42.8 °F - 37.4 °F 81% 30.03 in 10.0 mi Calm Calm - N/A   Overcast
7:55 AM 42.8 °F - 39.2 °F 87% 30.03 in 10.0 mi Calm Calm - N/A   Overcast
8:15 AM 44.6 °F 43.1 °F 39.2 °F 81% 30.03 in 10.0 mi South 3.5 mph - N/A   Overcast
8:35 AM 44.6 °F 42.2 °F 39.2 °F 81% 30.03 in 10.0 mi South 4.6 mph - N/A   Overcast
8:55 AM 44.6 °F 43.1 °F 41.0 °F 87% 30.04 in 10.0 mi South 3.5 mph - N/A   Overcast
9:15 AM 46.4 °F 42.9 °F 39.2 °F 76% 30.04 in 10.0 mi South 6.9 mph - N/A   Mostly Cloudy
9:35 AM 46.4 °F 42.9 °F 41.0 °F 81% 30.04 in 5.0 mi South 6.9 mph - N/A   Haze
9:55 AM 50.0 °F - 41.0 °F 71% 30.05 in 10.0 mi SSW 4.6 mph - N/A   Overcast
10:15 AM 50.0 °F - 41.0 °F 71% 30.05 in 10.0 mi South 4.6 mph - N/A   Overcast
10:35 AM 50.0 °F - 41.0 °F 71% 30.05 in 10.0 mi SSW 6.9 mph - N/A   Overcast
10:55 AM 51.8 °F - 42.8 °F 71% 30.05 in 10.0 mi SW 9.2 mph - N/A   Overcast
11:15 AM 53.6 °F - 42.8 °F 67% 30.05 in 10.0 mi SW 6.9 mph - N/A   Overcast
11:35 AM 53.6 °F - 44.6 °F 72% 30.04 in 10.0 mi SW 8.1 mph - N/A   Overcast
11:55 AM 55.4 °F - 44.6 °F 67% 30.04 in 10.0 mi SSW 5.8 mph - N/A   Overcast
12:15 PM 59.0 °F - 46.4 °F 63% 30.04 in 10.0 mi WSW 8.1 mph - N/A   Overcast
12:35 PM 59.0 °F - 46.4 °F 63% 30.03 in 10.0 mi SW 6.9 mph - N/A   Overcast
12:55 PM 60.8 °F - 48.2 °F 63% 30.03 in 10.0 mi WSW 8.1 mph - N/A   Overcast
1:15 PM 62.6 °F - 50.0 °F 63% 30.02 in 10.0 mi WSW 6.9 mph - N/A   Mostly Cloudy
1:35 PM 64.4 °F - 50.0 °F 59% 30.01 in 10.0 mi SSW 8.1 mph - N/A   Clear
1:55 PM 64.4 °F - 48.2 °F 56% 30.00 in 10.0 mi WSW 6.9 mph - N/A   Clear
2:15 PM 66.2 °F - 46.4 °F 49% 30.00 in 10.0 mi SW 8.1 mph - N/A   Clear
2:35 PM 66.2 °F - 46.4 °F 49% 29.99 in 10.0 mi WSW 8.1 mph - N/A   Clear
2:55 PM 68.0 °F - 46.4 °F 46% 29.99 in 10.0 mi West 10.4 mph - N/A   Scattered Clouds
3:15 PM 68.0 °F - 46.4 °F 46% 29.98 in 10.0 mi SW 8.1 mph - N/A   Scattered Clouds
3:35 PM 68.0 °F - 46.4 °F 46% 29.98 in 10.0 mi WSW 8.1 mph - N/A   Clear
3:55 PM 68.0 °F - 46.4 °F 46% 29.97 in 10.0 mi SW 10.4 mph - N/A   Clear
4:15 PM 68.0 °F - 48.2 °F 49% 29.97 in 10.0 mi SSW 11.5 mph - N/A   Clear
4:35 PM 66.2 °F - 48.2 °F 52% 29.97 in 10.0 mi SSW 8.1 mph - N/A   Mostly Cloudy
4:55 PM 66.2 °F - 48.2 °F 52% 29.97 in 10.0 mi SW 11.5 mph - N/A   Scattered Clouds
5:15 PM 64.4 °F - 48.2 °F 56% 29.97 in 10.0 mi SW 10.4 mph - N/A   Clear
5:35 PM 64.4 °F - 48.2 °F 56% 29.98 in 10.0 mi WSW 11.5 mph 16.1 mph N/A   Scattered Clouds
5:55 PM 64.4 °F - 48.2 °F 56% 29.98 in 10.0 mi WSW 4.6 mph - N/A   Overcast
6:15 PM 62.6 °F - 48.2 °F 59% 29.98 in 10.0 mi WSW 5.8 mph - N/A   Overcast
6:35 PM 62.6 °F - 48.2 °F 59% 29.98 in 10.0 mi SW 4.6 mph - N/A   Mostly Cloudy
6:55 PM 60.8 °F - 46.4 °F 59% 29.99 in 10.0 mi SSW 3.5 mph - N/A   Scattered Clouds
7:15 PM 60.8 °F - 48.2 °F 63% 29.99 in 10.0 mi SW 3.5 mph - N/A Rain Light Rain
7:35 PM 59.0 °F - 48.2 °F 67% 29.99 in 10.0 mi SSW 4.6 mph - N/A   Overcast
7:55 PM 59.0 °F - 46.4 °F 63% 29.99 in 10.0 mi SSW 4.6 mph - N/A   Scattered Clouds
8:15 PM 55.4 °F - 46.4 °F 72% 30.00 in 10.0 mi South 4.6 mph - N/A   Clear
8:35 PM 53.6 °F - 46.4 °F 77% 30.00 in 10.0 mi SSW 4.6 mph - N/A   Scattered Clouds
8:55 PM 53.6 °F - 46.4 °F 77% 30.00 in 10.0 mi South 5.8 mph - N/A   Clear
9:15 PM 55.4 °F - 46.4 °F 72% 30.00 in 10.0 mi SSW 6.9 mph - N/A   Clear
9:35 PM 55.4 °F - 48.2 °F 77% 30.00 in 10.0 mi SSW 9.2 mph - N/A   Clear
9:55 PM 57.2 °F - 46.4 °F 67% 30.00 in 10.0 mi SSW 8.1 mph - N/A   Clear
10:15 PM 55.4 °F - 46.4 °F 72% 30.00 in 10.0 mi SSW 8.1 mph - N/A   Clear
10:35 PM 55.4 °F - 46.4 °F 72% 30.00 in 10.0 mi SSW 6.9 mph - N/A   Scattered Clouds
10:55 PM 55.4 °F - 46.4 °F 72% 30.00 in 10.0 mi SSW 8.1 mph - N/A   Scattered Clouds
11:15 PM 55.4 °F - 48.2 °F 77% 30.00 in 10.0 mi SSW 9.2 mph - N/A   Clear
11:35 PM 55.4 °F - 46.4 °F 72% 29.99 in 10.0 mi SSW 9.2 mph - N/A   Clear
11:55 PM 55.4 °F - 46.4 °F 72% 29.99 in 10.0 mi SSW 10.4 mph - N/A   Clear